NOAA 17 DEB

Satellite information

Favourite Embed

Satellite Type and Status

DEBRISIN ORBIT

Key statistics

Satellite NOAA 17 DEB at a glance.

Uptime

8520

Days in orbit

Revolutions

≈ 14.4

Per day

Orbit

SSO

Sun Synchronous Orbit

Inclination

98.8

Latest

Satellite identification and parameters

Extended collection of information and parameters for NOAA 17 DEB.

Object identification

Identified? True

Debris? True

Object name: NOAA 17 DEB

International designator: 2002-032BQ

Object number (NORAD): 48731

Object ID (CCSDS): 48731

Country: UNITED STATES OF AMERICA (US)

Current information (Y/N): Y

RCS size: SMALL

Orbital parameters

Period: 99.848 minutes

Inclination: 98.8104 deg

SMA: 7129.409 km

Apoapsis: 774.298 km

Periapsis: 728.249 km

RAAN: 263.0378 deg

Eccentricy: 0.0032295

Argument of periapsis: 286.856 deg

Mean anomaly: 72.9088 deg

Mean motion: 14.42190008 rev/day

Mean motion (dot): 0.00017953 rev/day2

B* drag term: 0.0054175147 1/REarth

Two-line elements (TLE)

Creation date: Oct. 20, 2025, 2:10 a.m.

Reference frame: TEME

Reference center: EARTH

Epoch: Oct. 19, 2025, 8:59 a.m. UTC

TLE line 0: 0 NOAA 17 DEB

TLE line 1: 1 48731U 02032BQ 25292.37435654 .00017953 00000-0 54175-2 0 9996

TLE line 2: 2 48731 98.8104 263.0378 0032295 286.8560 72.9088 14.42190008238466

Live tracking on map

Real-time ground track for satellite NOAA 17 DEB.

In-orbit conjunctions

A list of the most updated potential collisions computed for object NOAA 17 DEB.

Target Orbit TCA Probability of collision Miss distance Type
THOR ABLESTAR DEB LEO 2025-07-25 05:19:56 0.0001082621 125.0 (m) DEBRIS
SL-8 R/B LEO 2025-07-16 06:55:44 0.0001348105 235.0 (m) ROCKET BODY
WEOS SSO 2024-11-08 05:35:11 0.000239232 717.0 (m) PAYLOAD

Associated space launch

NOAA M carried weather imagers and microwave and infrared sounders, as well as a SARSAT search-and-rescue package. It had an on-orbit mass of 1475 kg.

NOAA 17 DEB was lifted into orbit during the mission ‘Titan II SLV | NOAA 17’, on board a Titan II SLV space rocket.

The launch took place on June 24, 2002, 6:23 p.m. from Space Launch Complex 4W.

For more information about the launch, click the button.

Launch to space Titan II SLV | NOAA 17
Titan II SLV | NOAA 17

Agency: N/A

Status: Launch Successful

Launch date: June 24, 2002, 6:23 p.m. UTC

Rocket: Titan II SLV

Launch pad: Space Launch Complex 4W

Location: Vandenberg SFB, CA, USA

...

Latest news about this satellite

There are no fresh news available about this satellite. Check back as we update our databases every day.


Newsletter sign-up

Weekly statistics, charts and insights to help you stay on top of the space industry.